Regional Weather Roundup
Issued by NWS

Home | Current Version | Previous Version | Graphics & Text | Print | Product List | Glossary On
Versions: 1 2 3 4 5 6 7 8 9 10 11 12 13 14 15 16 17 18 19 20 21 22 23 24 25 26 27 28 29 30 31 32 33 34 35 36 37 38 39 40 41 42 43 44 45 46 47 48 49 50
000
ASUS45 KBOU 231107
RWRCO

WEATHER ROUNDUP FOR COLORADO
NATIONAL WEATHER SERVICE DENVER/BOULDER CO
500 AM MDT MON MAY 23 2016

NOTE: "FAIR" INDICATES FEW OR NO CLOUDS BELOW 12000 FEET WITH NO
SIGNIFICANT WEATHER AND/OR OBSTRUCTIONS TO VISIBILITY.

COZ001>005-013-030-031-231200-
...NORTHWEST COLORADO...

CITY           SKY/WX    TMP DP  RH WIND       PRES   REMARKS
CRAIG          FAIR      27  24  89 SE3       30.03S
HAYDEN         FAIR      34  27  75 SE6       30.02F WCI  29
MEEKER         FAIR      34  29  82 CALM      30.01R
MOUNT WERNER   NOT AVBL
STEAMBOAT SPGS FAIR      31  28  90 CALM      30.03S
WALDEN         FAIR      30  25  80 CALM      30.05S
$$

COZ006>008-011-231200-
...WEST CENTRAL VALLEYS...

CITY           SKY/WX    TMP DP  RH WIND       PRES   REMARKS
GRAND JUNCTION FAIR      44  25  47 CALM      29.92S
MONTROSE       FAIR      40  27  59 SE3       29.98R
EAGLE          CLOUDY    36  27  69 CALM      30.05R
RIFLE          FAIR      38  28  67 CALM      29.99R
DELTA          FAIR      43  25  50 N3        29.95S
NUCLA          FAIR      41  27  56 E8        29.97F
$$

COZ017>023-064>068-231200-
...SOUTHWEST COLORADO...

CITY           SKY/WX    TMP DP  RH WIND       PRES   REMARKS
DURANGO        FAIR      33  26  75 CALM      30.00R
CORTEZ         FAIR      33  26  75 E3        29.95S
PAGOSA SPRINGS FAIR      37  25  61 CALM      30.05S
TELLURIDE      FAIR      38  24  55 SE3       30.07F
WOLF CREEK PAS FAIR      27  18  69 SW20      30.19F WCI  13
$$

COZ009-010-012-014-032>034-037-058>063-231200-
...CENTRAL COLORADO...

CITY           SKY/WX    TMP DP  RH WIND       PRES   REMARKS
ASPEN          MOCLDY    33  25  72 SW6       30.02S WCI  28
BUENA VISTA    FAIR      37  24  59 NW6       30.03S
COPPER MTN     NOT AVBL
BERTHOUD PASS  FAIR      27  16  63 W12G17    30.15F WCI  16
COTTONWOOD PAS FAIR      41  18  38 W6        30.09F
GUNNISON       FAIR      32  23  69 CALM      30.07S
KREMMLING      CLOUDY    32  28  86 CALM      30.06S
LEADVILLE      CLOUDY    29  19  66 CALM      30.08S
MONARCH PASS   FAIR      30  18  59 SW17      30.27F WCI  18
SALIDA         FAIR      40  24  54 CALM      30.09F
SUNLIGHT       FAIR      32  19  59 CALM      30.15R
WILKERSON PASS FAIR      32  19  59 SW6       30.15F WCI  26
$$

COZ069>075-231200-
...SAN LUIS VALLEY/SANGRE DE CRISTO MOUNTAINS...

CITY           SKY/WX    TMP DP  RH WIND       PRES   REMARKS
ALAMOSA        FAIR      41  24  51 S12       30.02R
LA VETA PASS   FAIR      37  21  52 S3        30.14R
SAGUACHE       FAIR      37  25  60 N13       30.03F
$$

COZ035-036-038>040-231200-
...NORTHERN COLORADO FRONT RANGE...

CITY           SKY/WX    TMP DP  RH WIND       PRES   REMARKS
DENVER INTL AP FAIR      42  37  82 S10       29.93S
DMNS CITY PARK   N/A     49  38  65 SE10      29.93S
AURORA         PTCLDY    43  36  75 S9        29.95R
FRONT RANGE AP NOT AVBL
ERIE MUNI ARPT FAIR      47  40  77 CALM      29.93R
BOULDER MUN AP FAIR      48  43  81 SE3       29.93R
CENTENNIAL     FAIR      45  37  73 S6        29.94S
BROOMFIELD     FAIR      46  41  81 SE6       29.94R
FORT COLLINS   FAIR      46  39  76 CALM      29.94S
LONGMONT       FAIR      46  39  76 NW5         N/A
$$

COZ041-046-047-076>085-087-088-231200-
...PIKES PEAK/PALMER DIVIDE AND SOUTHERN FOOTHILLS...

CITY           SKY/WX    TMP DP  RH WIND       PRES   REMARKS
COLO. SPRINGS  FAIR      48  32  53 NE12      29.97R
A. F. ACADEMY  FAIR      39  34  81 N8        29.96R
SCHRIEVER AFB  NOT AVBL
ELLICOTT       FAIR     N/A N/A N/A E21G28    29.93R
FALCON         FAIR      41  31  68 N8        29.99R
FORT CARSON    FAIR      46  36  68 N8        29.94R
LIMON          FAIR      45  33  63 N8        29.93R
MONUMENT HILL  FAIR      36  32  87 SE12      29.99S
TRINIDAD       FAIR      48  39  71 VRB5      29.94R
$$

COZ042>045-048>051-090-091-231200-
...NORTHEAST COLORADO...

CITY           SKY/WX    TMP DP  RH WIND       PRES   REMARKS
GREELEY ARPT   FAIR      43  36  75 SW5       29.93R
AKRON          MOCLDY    49  35  58 NE8       29.91S
BURLINGTON     CLOUDY    54  42  64 NE9       29.89R
WRAY           NOT AVBL
STERLING       FAIR      50  36  57 CALM      29.89S
HOLYOKE        MOCLDY    55  46  71 W5        29.90R
FORT MORGAN    MOCLDY    49  32  51 N7        29.91S
$$

COZ086-089-092>099-231200-
...SOUTHEAST COLORADO...

CITY           SKY/WX    TMP DP  RH WIND       PRES   REMARKS
PUEBLO         FAIR      51  38  60 NW5       29.93R
LA JUNTA       FAIR      54  40  59 N10       29.86R
LAMAR          FAIR      50  47  89 W3        29.80R
SPRINGFIELD      N/A     49  49 100 W8        29.83R
$$



USA.gov is the U.S. government's official web portal to all federal, state and local government web resources and services.